Preview of NWS' New Version of Forecast
This preview is not operational and should not be used for support decisions.

Regional Weather Roundup (RWR)

Issued by National Weather Service (NWS)

                            
000
ASCA42 TJSJ 201910
RWRPR 
PUERTO RICO/U.S. VIRGIN ISLANDS HOURLY WEATHER ROUNDUP
NATIONAL WEATHER SERVICE SAN JUAN PR
300 PM AST WED FEB 20 2019

PRZ001>002-007>008-010-202000-
PUERTO RICO
  
CITY           SKY/WX    TMP DP  RH WIND       PRES   REMARKS
SAN JUAN LMM   LGT RAIN  75  70  83 E10G21    30.08F                  
AGUADILLA      PTSUNNY   75 N/A N/A E16G23    30.08F                  
CEIBA          CLOUDY    75  72  88 NE10G21   30.09F                  
$$

VIZ001>002-202000-
U.S. VIRGIN ISLANDS
  
CITY           SKY/WX    TMP DP  RH WIND       PRES   REMARKS
CHARLOTTE AMA  PTSUNNY   82  70  65 E17       30.06F                  
CHRISTIANSTED  MOSUNNY   82  68  61 E10       30.05F                  
$$

HOURLY WEATHER ROUNDUP FOR THE NEWS MEDIA
  
CITY           SKY/WX    TMP DP  RH WIND       PRES   REMARKS
ORLANDO        PTSUNNY   83  68  60 S13       30.06F                  
NEW YORK       LGT SNOW  27  25  92 E10       30.50F FOG     WCI  17  
NEWARK         LGT SNOW  29  26  89 E9        30.47F VSB 3/4 WCI  20  
CHICAGO        DRZL/FOG  34  32  92 SE7       29.70F VSB 3/4 WCI  28  
HARTFORD       FAIR      28   8  43 SW3       30.49F                  
BOSTON         CLOUDY    29   6  38 SW5       30.50F WCI  24          
DALLAS         PTSUNNY   52  37  56 SW6       29.97F                  
PHILADELPHIA   LGT SNOW  29  26  89 E8        30.44  VSB 1   WCI  21  
LOS ANGELES    PTSUNNY   55  41  59 SE13      29.97F                  
WASHINGTON DC  FRZ RAIN  31  27  85 SE6       30.36F FOG     WCI  25